TimeEDT,TemperatureF,Dew PointF,Humidity,Sea Level PressureIn,VisibilityMPH,Wind Direction,Wind SpeedMPH,Gust SpeedMPH,PrecipitationIn,Events,Conditions,WindDirDegrees,DateUTC
12:58 AM,72.7,72.3,99,29.87,10.0,Calm,Calm,-,N/A,,Mostly Cloudy,0,2013-07-25 04:58:00
1:58 AM,71.8,71.6,99,29.87,10.0,South,2.3,-,N/A,,Mostly Cloudy,180,2013-07-25 05:58:00
2:23 AM,71.6,71.6,100,29.86,8.0,South,1.2,-,N/A,,Partly Cloudy,170,2013-07-25 06:23:00
2:33 AM,71.6,71.6,100,29.85,9.0,NW,1.2,-,N/A,,Partly Cloudy,310,2013-07-25 06:33:00
2:48 AM,71.6,71.6,100,29.85,5.0,Calm,Calm,-,N/A,,Partly Cloudy,0,2013-07-25 06:48:00
2:53 AM,71.6,69.8,94,29.85,4.0,Calm,Calm,-,N/A,,Clear,0,2013-07-25 06:53:00
2:58 AM,70.7,70.5,99,29.86,4.0,Calm,Calm,-,N/A,,Clear,0,2013-07-25 06:58:00
3:03 AM,69.8,69.8,100,29.85,1.2,West,2.3,-,N/A,,Clear,260,2013-07-25 07:03:00
3:08 AM,69.8,69.8,100,29.85,1.0,Calm,Calm,-,N/A,,Clear,0,2013-07-25 07:08:00
3:13 AM,69.8,69.8,100,29.84,1.2,Calm,Calm,-,N/A,,Clear,0,2013-07-25 07:13:00
3:23 AM,69.8,69.8,100,29.84,1.0,Calm,Calm,-,N/A,,Clear,0,2013-07-25 07:23:00
3:33 AM,69.8,69.8,100,29.84,0.8,Calm,Calm,-,N/A,,Clear,0,2013-07-25 07:33:00
3:43 AM,69.8,69.8,100,29.84,1.0,Calm,Calm,-,N/A,,Clear,0,2013-07-25 07:43:00
3:48 AM,69.8,69.8,100,29.84,0.8,Calm,Calm,-,N/A,,Clear,0,2013-07-25 07:48:00
3:53 AM,69.8,69.8,100,29.84,0.8,Calm,Calm,-,N/A,,Clear,0,2013-07-25 07:53:00
3:58 AM,69.3,69.1,99,29.85,1.0,NW,1.2,-,N/A,,Clear,320,2013-07-25 07:58:00
4:03 AM,69.8,69.8,100,29.84,2.0,Calm,Calm,-,N/A,,Clear,0,2013-07-25 08:03:00
4:08 AM,69.8,69.8,100,29.84,4.0,Calm,Calm,-,N/A,,Clear,0,2013-07-25 08:08:00
4:13 AM,69.8,69.8,100,29.84,10.0,Calm,Calm,-,N/A,,Clear,0,2013-07-25 08:13:00
4:58 AM,69.6,69.4,99,29.86,8.0,Calm,Calm,-,N/A,,Mostly Cloudy,0,2013-07-25 08:58:00
5:08 AM,69.8,69.8,100,29.86,10.0,Calm,Calm,-,N/A,,Mostly Cloudy,0,2013-07-25 09:08:00
5:18 AM,69.8,69.8,100,29.86,6.0,Calm,Calm,-,N/A,,Scattered Clouds,0,2013-07-25 09:18:00
5:28 AM,69.8,69.8,100,29.86,9.0,Calm,Calm,-,N/A,,Partly Cloudy,0,2013-07-25 09:28:00
5:41 AM,69.8,69.8,100,29.86,8.0,Calm,Calm,-,N/A,,Partly Cloudy,0,2013-07-25 09:41:00
5:46 AM,69.8,69.8,100,29.86,4.0,Calm,Calm,-,N/A,,Scattered Clouds,0,2013-07-25 09:46:00
5:51 AM,69.8,69.8,100,29.87,4.0,Calm,Calm,-,N/A,,Mostly Cloudy,0,2013-07-25 09:51:00
5:58 AM,69.4,69.1,99,29.88,9.0,Calm,Calm,-,N/A,,Mostly Cloudy,0,2013-07-25 09:58:00
6:23 AM,69.8,69.8,100,29.88,10.0,Calm,Calm,-,N/A,,Overcast,0,2013-07-25 10:23:00
6:48 AM,69.8,69.8,100,29.89,10.0,West,2.3,-,N/A,,Overcast,270,2013-07-25 10:48:00
6:58 AM,70.2,69.8,99,29.90,10.0,WSW,2.3,-,N/A,,Overcast,250,2013-07-25 10:58:00
7:58 AM,71.1,70.9,99,29.91,10.0,Calm,Calm,-,N/A,,Overcast,0,2013-07-25 11:58:00
8:13 AM,71.6,71.6,100,29.91,10.0,WNW,3.5,-,N/A,,Overcast,290,2013-07-25 12:13:00
8:58 AM,72.7,72.3,99,29.93,10.0,WNW,3.5,-,N/A,,Overcast,290,2013-07-25 12:58:00
9:13 AM,73.4,73.4,100,29.92,10.0,West,2.3,-,N/A,,Overcast,270,2013-07-25 13:13:00
9:23 AM,73.4,73.4,100,29.92,10.0,Calm,Calm,-,N/A,,Overcast,0,2013-07-25 13:23:00
9:43 AM,77.0,73.4,89,29.92,10.0,Calm,Calm,-,N/A,,Mostly Cloudy,0,2013-07-25 13:43:00
9:44 AM,77.0,73.4,89,29.92,10.0,Variable,1.2,-,N/A,,Scattered Clouds,0,2013-07-25 13:44:00
9:58 AM,77.5,74.3,90,29.91,10.0,West,2.3,-,N/A,,Partly Cloudy,270,2013-07-25 13:58:00
10:58 AM,81.5,74.8,80,29.92,10.0,Calm,Calm,-,N/A,,Clear,0,2013-07-25 14:58:00
11:58 AM,84.9,74.1,70,29.94,10.0,NNW,3.5,-,N/A,,Partly Cloudy,340,2013-07-25 15:58:00
12:58 PM,86.9,73.6,64,29.94,10.0,Variable,3.5,-,N/A,,Partly Cloudy,0,2013-07-25 16:58:00
1:58 PM,88.9,74.8,63,29.94,10.0,Variable,3.5,-,N/A,,Scattered Clouds,0,2013-07-25 17:58:00
2:58 PM,89.2,73.4,59,29.94,10.0,West,4.6,-,N/A,,Scattered Clouds,270,2013-07-25 18:58:00
3:58 PM,90.7,73.0,56,29.92,10.0,NW,5.8,-,N/A,,Clear,310,2013-07-25 19:58:00
4:55 PM,90.5,73.8,58,29.91,10.0,West,8.1,-,N/A,,Clear,280,2013-07-25 20:55:00
5:58 PM,90.1,73.4,58,29.91,10.0,WNW,6.9,-,N/A,,Clear,290,2013-07-25 21:58:00
6:58 PM,88.3,74.3,63,29.92,10.0,NW,5.8,-,N/A,,Scattered Clouds,320,2013-07-25 22:58:00
7:58 PM,84.0,76.3,77,29.93,10.0,West,3.5,-,N/A,,Clear,270,2013-07-25 23:58:00
8:58 PM,78.6,76.5,93,29.94,10.0,Calm,Calm,-,N/A,,Clear,0,2013-07-26 00:58:00
9:56 PM,77.0,75.2,94,29.96,10.0,Calm,Calm,-,N/A,,Clear,0,2013-07-26 01:56:00
10:35 PM,75.2,75.2,100,29.97,6.0,SW,1.2,-,N/A,,Clear,230,2013-07-26 02:35:00
10:56 PM,75.2,75.2,100,29.98,7.0,Calm,Calm,-,N/A,,Clear,0,2013-07-26 02:56:00
11:00 PM,75.2,75.2,100,29.98,8.0,Calm,Calm,-,N/A,,Clear,360,2013-07-26 03:00:00
11:25 PM,73.4,73.4,100,29.98,8.0,WNW,2.3,-,N/A,,Clear,290,2013-07-26 03:25:00
11:56 PM,73.4,73.4,100,29.98,5.0,SW,2.3,-,N/A,,Clear,230,2013-07-26 03:56:00